Simultaneous Nadir Overpasses (SNOs) Predictions

Prediction of SNOs between METOP-B and NOAA-19 Satellite Orbit:

Table of predicted SNOs for the next 14.0 days since TLE Epoch: 11/11/2017
Index Date (METOP-B) Time (METOP-B) Lat,Lon (METOP-B) SZA (METOP-B ) Date (NOAA-19) Time (NOAA-19) Lat,Lon (NOAA-19) SZA (NOAA-19 ) Distance(km) Time Diff (sec)
1 11/12/2017 13:48:51 77.74, -20.18 95.72 11/12/2017 13:47:37 77.77, -20.54 95.73 9.10 74
2 11/12/2017 14:39:33 -77.70, 146.95 84.32 11/12/2017 14:38:32 -77.72, 146.98 84.31 2.88 61
3 11/12/2017 15:30:13 77.72, -45.60 95.72 11/12/2017 15:29:37 77.71, -45.75 95.70 3.52 36
4 11/12/2017 16:20:55 -77.68, 121.52 84.32 11/12/2017 16:20:33 -77.71, 121.56 84.30 3.07 22
5 11/12/2017 17:11:35 77.70, -71.03 95.72 11/12/2017 17:11:38 77.70, -71.16 95.71 3.35 3
6 11/12/2017 18:02:17 -77.66, 96.10 84.33 11/12/2017 18:02:34 -77.69, 96.14 84.29 3.27 17
7 11/12/2017 18:52:57 77.69, -96.45 95.72 11/12/2017 18:53:39 77.68, -96.58 95.71 3.19 42
8 11/12/2017 19:43:39 -77.64, 70.68 84.33 11/12/2017 19:44:35 -77.67, 70.72 84.29 3.46 56
9 11/12/2017 20:34:26 77.37,-123.23 95.37 11/12/2017 20:35:34 77.43,-120.79 95.53 59.70 68
10 11/23/2017 09:58:09 77.73, 37.45 98.27 11/23/2017 09:57:06 77.73, 37.60 98.27 3.56 63
11 11/23/2017 10:48:50 -77.74,-155.17 81.72 11/23/2017 10:48:01 -77.73,-155.12 81.73 1.28 49
12 11/23/2017 11:39:31 77.71, 12.03 98.26 11/23/2017 11:39:07 77.72, 12.18 98.27 3.71 24
13 11/23/2017 12:30:12 -77.72, 179.41 81.72 11/23/2017 12:30:02 -77.72, 179.46 81.73 1.22 10
14 11/23/2017 13:20:52 77.74, -13.20 98.30 11/23/2017 13:21:08 77.70, -13.24 98.27 3.68 16
15 11/23/2017 14:11:34 -77.70, 153.98 81.73 11/23/2017 14:12:03 -77.70, 154.04 81.72 1.20 29
16 11/23/2017 15:02:14 77.72, -38.62 98.30 11/23/2017 15:03:09 77.69, -38.66 98.28 3.42 55
17 11/23/2017 15:52:56 -77.69, 128.56 81.74 11/23/2017 15:54:04 -77.69, 128.61 81.72 1.23 68




NCC Satellite Simultaneous Nadir Overpasses (SNOs) Prediction Service
